ASL14B LYBE-EKCH

Flight info

Callsign ASL14B
Flight time 1h 55m
Altitude 36000
Route TISAK DCT TONDO DCT DUZLA DCT MAVOR DCT ELVOT DCT PESEL DCT PENET T298 MONAK
Aircraft A320/M-SDE3FGHIRWY/LB1

Departure

Time 2026-04-22 08:15
Airport Belgrade Nikola Tesla Airport (LYBE)

Arrival

Time 2026-04-22 10:10
Airport Copenhagen Kastrup Airport (EKCH)
Time Latitude Longitude Altitude Speed Heading
2026-04-22 07:54 44.81896 20.29238 324 ft 0 kts 302°
2026-04-22 08:07 44.81893 20.29246 324 ft 3 kts 302°
2026-04-22 08:07 44.81882 20.29270 322 ft 3 kts 313°
2026-04-22 08:08 44.81866 20.29288 323 ft 3 kts 346°
2026-04-22 08:08 44.81846 20.29289 324 ft 3 kts 12°
2026-04-22 08:08 44.81837 20.29285 324 ft 0 kts 32°
2026-04-22 08:11 44.81840 20.29288 324 ft 2 kts 34°
2026-04-22 08:11 44.81855 20.29305 323 ft 4 kts 38°
2026-04-22 08:11 44.81882 20.29335 324 ft 6 kts 38°
2026-04-22 08:11 44.81926 20.29374 324 ft 9 kts 31°
2026-04-22 08:12 44.81985 20.29425 324 ft 11 kts 32°
2026-04-22 08:12 44.82058 20.29489 324 ft 13 kts 32°
2026-04-22 08:12 44.82145 20.29507 324 ft 14 kts 322°
2026-04-22 08:12 44.82206 20.29385 325 ft 16 kts 302°
2026-04-22 08:13 44.82271 20.29238 325 ft 19 kts 302°
2026-04-22 08:13 44.82346 20.29073 324 ft 21 kts 303°
2026-04-22 08:13 44.82430 20.28891 324 ft 23 kts 316°
2026-04-22 08:13 44.82562 20.28912 323 ft 22 kts 45°
2026-04-22 08:14 44.82620 20.29119 322 ft 26 kts 86°
2026-04-22 08:14 44.82470 20.29511 325 ft 78 kts 122°
2026-04-22 08:14 44.82073 20.30403 322 ft 134 kts 122°
2026-04-22 08:14 44.81510 20.31681 502 ft 161 kts 120°
2026-04-22 08:15 44.80912 20.32995 1208 ft 159 kts 116°
2026-04-22 08:15 44.80779 20.34493 1754 ft 160 kts 71°
2026-04-22 08:15 44.81381 20.35831 2108 ft 169 kts 35°
2026-04-22 08:15 44.82490 20.36404 2574 ft 177 kts
2026-04-22 08:16 44.83676 20.35926 3138 ft 183 kts 326°
2026-04-22 08:16 44.84547 20.34597 3807 ft 185 kts 313°
2026-04-22 08:16 44.85320 20.33171 4481 ft 190 kts 310°
2026-04-22 08:16 44.86293 20.31800 4796 ft 208 kts 331°
2026-04-22 08:17 44.87615 20.30721 5169 ft 231 kts 333°
2026-04-22 08:17 44.89084 20.29551 5650 ft 250 kts 332°
2026-04-22 08:17 44.90622 20.28329 6466 ft 256 kts 332°
2026-04-22 08:17 44.92182 20.27088 7299 ft 259 kts 332°
2026-04-22 08:18 44.93761 20.25828 8136 ft 262 kts 331°
2026-04-22 08:18 44.95359 20.24554 8963 ft 265 kts 331°
2026-04-22 08:18 44.96983 20.23261 9762 ft 270 kts 331°
2026-04-22 08:18 44.98637 20.21949 10383 ft 280 kts 330°
2026-04-22 08:19 45.00406 20.20543 10580 ft 303 kts 330°
2026-04-22 08:19 45.02300 20.19035 10918 ft 319 kts 330°
2026-04-22 08:19 45.04247 20.17481 11558 ft 324 kts 330°
2026-04-22 08:19 45.06218 20.15909 12246 ft 327 kts 330°
2026-04-22 08:20 45.08206 20.14319 12930 ft 330 kts 329°
2026-04-22 08:20 45.10214 20.12713 13604 ft 333 kts 329°
2026-04-22 08:20 45.12243 20.11092 14238 ft 336 kts 329°
2026-04-22 08:20 45.14289 20.09455 14840 ft 339 kts 329°
2026-04-22 08:21 45.16349 20.07804 15440 ft 341 kts 329°
2026-04-22 08:21 45.18422 20.06140 16044 ft 344 kts 329°
2026-04-22 08:21 45.19803 20.05030 16420 ft 346 kts 329°
2026-04-22 08:21 45.21904 20.03339 17006 ft 348 kts 329°
2026-04-22 08:22 45.24024 20.01636 17547 ft 352 kts 329°
2026-04-22 08:22 45.26166 19.99911 18122 ft 355 kts 329°
2026-04-22 08:22 45.28323 19.98170 18669 ft 358 kts 328°
2026-04-22 08:22 45.30497 19.96413 19183 ft 361 kts 329°
2026-04-22 08:23 45.32691 19.94641 19704 ft 364 kts 329°
2026-04-22 08:23 45.34903 19.92856 20216 ft 367 kts 329°
2026-04-22 08:23 45.37132 19.91055 20720 ft 370 kts 329°
2026-04-22 08:23 45.39377 19.89237 21203 ft 373 kts 329°
2026-04-22 08:24 45.41639 19.87405 21678 ft 376 kts 329°
2026-04-22 08:24 45.43920 19.85556 22136 ft 379 kts 329°
2026-04-22 08:24 45.46219 19.83686 22577 ft 382 kts 329°
2026-04-22 08:24 45.48539 19.81800 23026 ft 385 kts 329°
2026-04-22 08:25 45.50875 19.79901 23451 ft 389 kts 329°
2026-04-22 08:25 45.53232 19.77980 23851 ft 392 kts 329°
2026-04-22 08:25 45.55605 19.76043 24226 ft 394 kts 329°
2026-04-22 08:25 45.57992 19.74096 24598 ft 396 kts 329°
2026-04-22 08:26 45.60393 19.72139 24988 ft 398 kts 329°
2026-04-22 08:26 45.62805 19.70168 25366 ft 400 kts 329°
2026-04-22 08:26 45.65230 19.68186 25740 ft 403 kts 329°
2026-04-22 08:26 45.67668 19.66192 26097 ft 405 kts 329°
2026-04-22 08:27 45.70123 19.64178 26419 ft 408 kts 329°
2026-04-22 08:27 45.72595 19.62149 26771 ft 411 kts 329°
2026-04-22 08:27 45.75079 19.60107 27125 ft 413 kts 329°
2026-04-22 08:27 45.77575 19.58050 27480 ft 415 kts 329°
2026-04-22 08:28 45.80085 19.55981 27842 ft 417 kts 329°
2026-04-22 08:28 45.82610 19.53901 28210 ft 420 kts 329°
2026-04-22 08:28 45.85147 19.51810 28574 ft 422 kts 329°
2026-04-22 08:28 45.87698 19.49705 28924 ft 424 kts 329°
2026-04-22 08:29 45.90261 19.47586 29267 ft 426 kts 329°
2026-04-22 08:29 45.92838 19.45453 29619 ft 429 kts 329°
2026-04-22 08:29 45.95428 19.43310 29987 ft 430 kts 329°
2026-04-22 08:29 45.98017 19.41165 30428 ft 429 kts 329°
2026-04-22 08:30 46.00601 19.39024 30820 ft 428 kts 329°
2026-04-22 08:30 46.03179 19.36886 31211 ft 428 kts 329°
2026-04-22 08:30 46.05770 19.34779 31579 ft 428 kts 331°
2026-04-22 08:30 46.08420 19.32829 31969 ft 428 kts 333°
2026-04-22 08:31 46.11114 19.31007 32372 ft 427 kts 334°
2026-04-22 08:31 46.13823 19.29255 32773 ft 427 kts 335°
2026-04-22 08:31 46.19239 19.25753 33573 ft 426 kts 334°
2026-04-22 08:32 46.21932 19.23964 33982 ft 426 kts 334°
2026-04-22 08:32 46.24614 19.22153 34337 ft 425 kts 334°
2026-04-22 08:32 46.27288 19.20329 34648 ft 425 kts 333°
2026-04-22 08:32 46.29956 19.18496 34953 ft 425 kts 333°
2026-04-22 08:33 46.32623 19.16663 35244 ft 424 kts 333°
2026-04-22 08:33 46.35288 19.14831 35529 ft 424 kts 333°
2026-04-22 08:33 46.37952 19.13003 35819 ft 424 kts 333°
2026-04-22 08:33 46.40618 19.11178 36086 ft 424 kts 334°
2026-04-22 08:34 46.43296 19.09345 36166 ft 428 kts 334°
2026-04-22 08:34 46.48732 19.05611 36169 ft 435 kts 333°
2026-04-22 08:35 46.54208 19.01842 36167 ft 436 kts 333°
2026-04-22 08:35 46.59691 18.98067 36168 ft 436 kts 333°
2026-04-22 08:36 46.65175 18.94287 36161 ft 436 kts 334°
2026-04-22 08:36 46.70649 18.90499 36169 ft 436 kts 334°
2026-04-22 08:37 46.76133 18.86686 36172 ft 437 kts 334°
2026-04-22 08:37 46.81619 18.82869 36176 ft 437 kts 334°
2026-04-22 08:38 46.87105 18.79042 36175 ft 437 kts 334°
2026-04-22 08:38 46.92594 18.75203 36185 ft 437 kts 334°
2026-04-22 08:39 46.98105 18.71415 36177 ft 438 kts 336°
2026-04-22 08:39 47.03722 18.67948 36189 ft 438 kts 338°
2026-04-22 08:40 47.09373 18.64585 36194 ft 438 kts 337°
2026-04-22 08:40 47.15006 18.61145 36198 ft 438 kts 337°
2026-04-22 08:41 47.20618 18.57642 36203 ft 438 kts 337°
2026-04-22 08:41 47.26229 18.54125 36204 ft 438 kts 337°
2026-04-22 08:42 47.31841 18.50621 36200 ft 438 kts 337°
2026-04-22 08:42 47.37451 18.47119 36201 ft 438 kts 337°
2026-04-22 08:43 47.43058 18.43623 36211 ft 438 kts 337°
2026-04-22 08:43 47.48663 18.40105 36209 ft 438 kts 337°
2026-04-22 08:44 47.54261 18.36565 36208 ft 437 kts 337°
2026-04-22 08:44 47.59860 18.33037 36221 ft 437 kts 337°
2026-04-22 08:45 47.65457 18.29499 36203 ft 437 kts 337°
2026-04-22 08:45 47.71051 18.25950 36209 ft 437 kts 337°
2026-04-22 08:46 47.75412 18.23173 36213 ft 439 kts 337°
2026-04-22 08:46 47.81116 18.19540 36198 ft 453 kts 337°
2026-04-22 08:47 47.86814 18.15917 36201 ft 439 kts 337°
2026-04-22 08:47 47.92409 18.12344 36190 ft 437 kts 337°
2026-04-22 08:48 47.97986 18.08764 36190 ft 436 kts 337°
2026-04-22 08:48 48.03553 18.05182 36193 ft 436 kts 337°
2026-04-22 08:49 48.09122 18.01597 36194 ft 436 kts 337°
2026-04-22 08:49 48.14690 17.98004 36209 ft 436 kts 337°
2026-04-22 08:50 48.20258 17.94389 36203 ft 436 kts 337°
2026-04-22 08:50 48.25827 17.90773 36207 ft 436 kts 337°
2026-04-22 08:51 48.31399 17.87157 36202 ft 436 kts 337°
2026-04-22 08:51 48.36971 17.83529 36204 ft 437 kts 338°
2026-04-22 08:52 48.42546 17.79897 36209 ft 437 kts 338°
2026-04-22 08:52 48.48122 17.76241 36210 ft 437 kts 338°
2026-04-22 08:53 48.53697 17.72579 36220 ft 437 kts 338°
2026-04-22 08:53 48.59273 17.68908 36222 ft 437 kts 338°
2026-04-22 08:54 48.64853 17.65225 36220 ft 438 kts 338°
2026-04-22 08:54 48.70436 17.61534 36223 ft 438 kts 338°
2026-04-22 08:55 48.76017 17.57829 36233 ft 438 kts 338°
2026-04-22 08:55 48.81601 17.54117 36246 ft 438 kts 338°
2026-04-22 08:56 48.87224 17.50543 36254 ft 438 kts 340°
2026-04-22 08:56 48.92898 17.47167 36262 ft 438 kts 340°
2026-04-22 08:57 48.98574 17.43782 36264 ft 438 kts 340°
2026-04-22 08:57 49.04237 17.40332 36264 ft 438 kts 340°
2026-04-22 08:58 49.09893 17.36852 36265 ft 438 kts 340°
2026-04-22 08:58 49.15549 17.33370 36263 ft 438 kts 340°
2026-04-22 08:59 49.21203 17.29884 36258 ft 438 kts 340°
2026-04-22 08:59 49.26856 17.26400 36248 ft 438 kts 340°
2026-04-22 09:00 49.32505 17.22922 36249 ft 438 kts 340°
2026-04-22 09:00 49.38153 17.19429 36248 ft 438 kts 340°
2026-04-22 09:01 49.43795 17.15919 36237 ft 437 kts 340°
2026-04-22 09:01 49.49433 17.12399 36236 ft 437 kts 340°
2026-04-22 09:02 49.55069 17.08874 36248 ft 437 kts 340°
2026-04-22 09:02 49.60708 17.05342 36253 ft 437 kts 340°
2026-04-22 09:03 49.65390 17.02406 36256 ft 437 kts 340°
2026-04-22 09:03 49.71026 16.98875 36259 ft 437 kts 340°
2026-04-22 09:04 49.76652 16.95332 36261 ft 437 kts 340°
2026-04-22 09:04 49.82275 16.91775 36247 ft 436 kts 340°
2026-04-22 09:05 49.87895 16.88208 36263 ft 436 kts 340°
2026-04-22 09:05 49.93516 16.84643 36265 ft 436 kts 340°
2026-04-22 09:06 49.99135 16.81072 36266 ft 436 kts 340°
2026-04-22 09:06 50.04749 16.77480 36274 ft 436 kts 340°
2026-04-22 09:07 50.10360 16.73885 36275 ft 436 kts 340°
2026-04-22 09:07 50.15971 16.70285 36260 ft 436 kts 340°
2026-04-22 09:08 50.21575 16.66678 36268 ft 436 kts 340°
2026-04-22 09:08 50.27181 16.63063 36277 ft 436 kts 340°
2026-04-22 09:09 50.32786 16.59433 36288 ft 436 kts 340°
2026-04-22 09:09 50.38391 16.55808 36288 ft 436 kts 340°
2026-04-22 09:10 50.43992 16.52173 36285 ft 436 kts 340°
2026-04-22 09:10 50.49589 16.48514 36291 ft 436 kts 340°
2026-04-22 09:11 50.55192 16.44845 36275 ft 436 kts 340°
2026-04-22 09:11 50.60793 16.41169 36283 ft 436 kts 340°
2026-04-22 09:12 50.66382 16.37459 36289 ft 436 kts 340°
2026-04-22 09:12 50.71963 16.33690 36295 ft 436 kts 340°
2026-04-22 09:13 50.77544 16.29919 36303 ft 436 kts 340°
2026-04-22 09:13 50.83128 16.26146 36305 ft 436 kts 340°
2026-04-22 09:14 50.88709 16.22357 36312 ft 437 kts 340°
2026-04-22 09:14 50.94293 16.18560 36295 ft 437 kts 340°
2026-04-22 09:15 50.99874 16.14757 36300 ft 436 kts 340°
2026-04-22 09:15 51.05415 16.10972 36305 ft 436 kts 340°
2026-04-22 09:16 51.11022 16.07123 36310 ft 436 kts 340°
2026-04-22 09:16 51.16600 16.03293 36311 ft 436 kts 340°
2026-04-22 09:17 51.22159 15.99461 36297 ft 436 kts 340°
2026-04-22 09:17 51.27719 15.95624 36304 ft 437 kts 340°
2026-04-22 09:18 51.33321 15.91747 36285 ft 437 kts 340°
2026-04-22 09:18 51.38885 15.87886 36296 ft 437 kts 340°
2026-04-22 09:19 51.44447 15.84010 36298 ft 437 kts 340°
2026-04-22 09:19 51.50031 15.80113 36290 ft 437 kts 340°
2026-04-22 09:20 51.55605 15.76212 36293 ft 437 kts 340°
2026-04-22 09:20 51.61178 15.72303 36294 ft 438 kts 340°
2026-04-22 09:21 51.66782 15.68364 36298 ft 438 kts 340°
2026-04-22 09:21 51.72357 15.64430 36277 ft 438 kts 340°
2026-04-22 09:22 51.77944 15.60469 36288 ft 439 kts 340°
2026-04-22 09:22 51.83518 15.56517 36295 ft 439 kts 340°
2026-04-22 09:23 51.89128 15.52541 36305 ft 439 kts 340°
2026-04-22 09:23 51.94686 15.48573 36304 ft 440 kts 340°
2026-04-22 09:24 52.00277 15.44566 36296 ft 439 kts 340°
2026-04-22 09:24 52.05875 15.40554 36300 ft 440 kts 340°
2026-04-22 09:25 52.11508 15.36498 36285 ft 440 kts 340°
2026-04-22 09:25 52.17100 15.32453 36295 ft 440 kts 340°
2026-04-22 09:26 52.22688 15.28410 36303 ft 439 kts 340°
2026-04-22 09:26 52.27108 15.25212 36294 ft 446 kts 340°
2026-04-22 09:27 52.32881 15.21041 36308 ft 461 kts 340°
2026-04-22 09:27 52.38831 15.16700 36295 ft 470 kts 340°
2026-04-22 09:27 52.41728 15.14566 36298 ft 455 kts 340°
2026-04-22 09:28 52.44579 15.12466 36295 ft 445 kts 340°
2026-04-22 09:28 52.50195 15.08346 36302 ft 441 kts 340°
2026-04-22 09:29 52.55788 15.04238 36301 ft 440 kts 340°
2026-04-22 09:29 52.61378 15.00130 36302 ft 440 kts 340°
2026-04-22 09:30 52.66963 14.96009 36298 ft 440 kts 340°
2026-04-22 09:30 52.72551 14.91868 36304 ft 440 kts 340°
2026-04-22 09:31 52.78138 14.87710 36300 ft 441 kts 340°
2026-04-22 09:31 52.83724 14.83531 36304 ft 441 kts 340°
2026-04-22 09:32 52.89315 14.79357 36300 ft 441 kts 340°
2026-04-22 09:32 52.94907 14.75168 36303 ft 441 kts 340°
2026-04-22 09:33 53.00497 14.70962 36309 ft 441 kts 340°
2026-04-22 09:33 53.06086 14.66741 36312 ft 441 kts 340°
2026-04-22 09:34 53.11674 14.62514 36303 ft 441 kts 340°
2026-04-22 09:34 53.17264 14.58272 36310 ft 441 kts 340°
2026-04-22 09:35 53.25645 14.51889 36313 ft 441 kts 340°
2026-04-22 09:35 53.31236 14.47633 36301 ft 441 kts 340°
2026-04-22 09:36 53.36820 14.43359 36311 ft 441 kts 339°
2026-04-22 09:36 53.42399 14.39060 36305 ft 441 kts 340°
2026-04-22 09:37 53.47977 14.34758 36315 ft 441 kts 340°
2026-04-22 09:37 53.53428 14.29959 36317 ft 444 kts 334°
2026-04-22 09:38 53.58750 14.24663 36314 ft 444 kts 334°
2026-04-22 09:38 53.64074 14.19365 36315 ft 445 kts 334°
2026-04-22 09:39 53.69397 14.14048 36293 ft 444 kts 333°
2026-04-22 09:39 53.74713 14.08718 36037 ft 444 kts 333°
2026-04-22 09:40 53.77362 14.06058 35811 ft 443 kts 333°
2026-04-22 09:40 53.80012 14.03391 35560 ft 443 kts 333°
2026-04-22 09:40 53.82663 14.00724 35315 ft 444 kts 333°
2026-04-22 09:40 53.85316 13.98045 35075 ft 444 kts 333°
2026-04-22 09:41 53.87966 13.95361 34839 ft 444 kts 333°
2026-04-22 09:41 53.90621 13.92670 34603 ft 444 kts 333°
2026-04-22 09:41 53.93276 13.89980 34370 ft 445 kts 333°
2026-04-22 09:41 53.95933 13.87286 34086 ft 445 kts 333°
2026-04-22 09:42 53.98587 13.84589 33811 ft 444 kts 333°
2026-04-22 09:42 54.01236 13.81891 33531 ft 443 kts 333°
2026-04-22 09:42 54.03867 13.79205 33232 ft 439 kts 333°
2026-04-22 09:42 54.06475 13.76536 32960 ft 436 kts 333°
2026-04-22 09:43 54.09054 13.73836 32684 ft 435 kts 329°
2026-04-22 09:43 54.11428 13.70617 32427 ft 438 kts 321°
2026-04-22 09:43 54.13616 13.67013 32168 ft 437 kts 320°
2026-04-22 09:43 54.15793 13.63415 31904 ft 435 kts 320°
2026-04-22 09:44 54.17962 13.59838 31644 ft 433 kts 320°
2026-04-22 09:44 54.20124 13.56277 31387 ft 431 kts 320°
2026-04-22 09:44 54.22287 13.52748 31133 ft 429 kts 320°
2026-04-22 09:44 54.24449 13.49244 30884 ft 427 kts 320°
2026-04-22 09:45 54.26600 13.45758 30623 ft 425 kts 320°
2026-04-22 09:45 54.28736 13.42278 30387 ft 423 kts 320°
2026-04-22 09:45 54.30859 13.38809 30072 ft 420 kts 320°
2026-04-22 09:45 54.32958 13.35370 29771 ft 416 kts 320°
2026-04-22 09:46 54.34368 13.33056 29581 ft 414 kts 320°
2026-04-22 09:46 54.36438 13.29644 29295 ft 412 kts 320°
2026-04-22 09:46 54.38493 13.26238 29008 ft 410 kts 320°
2026-04-22 09:46 54.40540 13.22834 28544 ft 409 kts 320°
2026-04-22 09:47 54.42571 13.19448 28005 ft 406 kts 320°
2026-04-22 09:47 54.44584 13.16080 27493 ft 402 kts 319°
2026-04-22 09:47 54.46580 13.12745 27008 ft 399 kts 320°
2026-04-22 09:47 54.48565 13.09436 26548 ft 396 kts 320°
2026-04-22 09:48 54.50534 13.06153 26085 ft 393 kts 319°
2026-04-22 09:48 54.52490 13.02885 25630 ft 390 kts 319°
2026-04-22 09:48 54.54431 12.99636 25185 ft 388 kts 319°
2026-04-22 09:48 54.56358 12.96406 24732 ft 385 kts 319°
2026-04-22 09:49 54.58274 12.93194 24297 ft 383 kts 319°
2026-04-22 09:49 54.60174 12.89999 23863 ft 380 kts 319°
2026-04-22 09:49 54.62058 12.86822 23359 ft 377 kts 319°
2026-04-22 09:49 54.63905 12.83708 22867 ft 375 kts 319°
2026-04-22 09:50 54.65761 12.80576 22380 ft 372 kts 319°
2026-04-22 09:50 54.67626 12.77422 21893 ft 369 kts 319°
2026-04-22 09:50 54.69426 12.74375 21434 ft 366 kts 319°
2026-04-22 09:50 54.71236 12.71312 20953 ft 363 kts 319°
2026-04-22 09:51 54.73030 12.68275 20488 ft 359 kts 319°
2026-04-22 09:51 54.74828 12.65214 20036 ft 356 kts 319°
2026-04-22 09:51 54.76582 12.62217 19590 ft 353 kts 319°
2026-04-22 09:51 54.78321 12.59240 19152 ft 350 kts 319°
2026-04-22 09:52 54.80049 12.56287 18714 ft 347 kts 318°
2026-04-22 09:52 54.81763 12.53359 18211 ft 345 kts 319°
2026-04-22 09:52 54.83463 12.50457 17720 ft 342 kts 319°
2026-04-22 09:52 54.85126 12.47611 17236 ft 339 kts 319°
2026-04-22 09:53 54.86794 12.44748 16779 ft 336 kts 318°
2026-04-22 09:53 54.88447 12.41900 16312 ft 333 kts 318°
2026-04-22 09:53 54.90088 12.39071 15857 ft 331 kts 318°
2026-04-22 09:53 54.91817 12.36489 15404 ft 325 kts 331°
2026-04-22 09:54 54.93868 12.35000 14955 ft 318 kts 349°
2026-04-22 09:54 54.96050 12.34754 14513 ft 313 kts
2026-04-22 09:54 54.98135 12.35738 14071 ft 311 kts 25°
2026-04-22 09:54 54.99976 12.37700 13587 ft 310 kts 33°
2026-04-22 09:55 55.01762 12.39799 13104 ft 309 kts 33°
2026-04-22 09:55 55.03546 12.41886 12630 ft 308 kts 32°
2026-04-22 09:55 55.05326 12.43959 12166 ft 307 kts 32°
2026-04-22 09:55 55.07099 12.46028 11701 ft 306 kts 32°
2026-04-22 09:56 55.08868 12.48095 11246 ft 305 kts 32°
2026-04-22 09:56 55.10628 12.50158 10796 ft 304 kts 32°
2026-04-22 09:56 55.12382 12.52221 10358 ft 304 kts 32°
2026-04-22 09:56 55.14134 12.54281 9885 ft 303 kts 32°
2026-04-22 09:57 55.15881 12.56331 9405 ft 302 kts 32°
2026-04-22 09:57 55.17624 12.58378 8935 ft 301 kts 32°
2026-04-22 09:57 55.19360 12.60426 8479 ft 300 kts 32°
2026-04-22 09:57 55.21072 12.62449 8214 ft 293 kts 32°
2026-04-22 09:58 55.22743 12.64419 7964 ft 286 kts 32°
2026-04-22 09:58 55.24440 12.66155 7708 ft 279 kts 27°
2026-04-22 09:58 55.26125 12.67779 7461 ft 274 kts 27°
2026-04-22 09:58 55.27776 12.69377 7208 ft 269 kts 27°
2026-04-22 09:59 55.29397 12.70947 6953 ft 264 kts 27°
2026-04-22 09:59 55.30991 12.72491 6717 ft 260 kts 27°
2026-04-22 09:59 55.32575 12.73980 6456 ft 257 kts 21°
2026-04-22 09:59 55.34292 12.74632 6194 ft 252 kts 358°
2026-04-22 10:00 55.35994 12.74008 5938 ft 251 kts 336°
2026-04-22 10:00 55.37406 12.72231 5680 ft 252 kts 314°
2026-04-22 10:00 55.38505 12.69823 5427 ft 252 kts 310°
2026-04-22 10:00 55.39586 12.67411 5168 ft 250 kts 310°
2026-04-22 10:01 55.40654 12.65029 4916 ft 246 kts 310°
2026-04-22 10:01 55.41706 12.62678 4664 ft 243 kts 310°
2026-04-22 10:01 55.42736 12.60361 4468 ft 237 kts 310°
2026-04-22 10:01 55.43527 12.57885 4341 ft 232 kts 287°
2026-04-22 10:02 55.43479 12.55078 4211 ft 233 kts 255°
2026-04-22 10:02 55.42577 12.52750 4082 ft 233 kts 225°
2026-04-22 10:02 55.41308 12.51039 3960 ft 226 kts 219°
2026-04-22 10:02 55.40032 12.49492 3836 ft 219 kts 218°
2026-04-22 10:03 55.38785 12.48014 3703 ft 213 kts 218°
2026-04-22 10:03 55.37715 12.46362 3560 ft 197 kts 246°
2026-04-22 10:03 55.37417 12.44198 3435 ft 177 kts 285°
2026-04-22 10:03 55.37893 12.42295 3355 ft 169 kts 308°
2026-04-22 10:04 55.38577 12.40618 3305 ft 169 kts 310°
2026-04-22 10:04 55.39277 12.38964 3258 ft 168 kts 310°
2026-04-22 10:04 55.40110 12.37580 3191 ft 165 kts 339°
2026-04-22 10:04 55.41231 12.37165 3124 ft 166 kts 353°
2026-04-22 10:05 55.42381 12.37032 3048 ft 166 kts 355°
2026-04-22 10:05 55.43539 12.37063 3002 ft 169 kts
2026-04-22 10:05 55.44618 12.37929 3004 ft 175 kts 33°
2026-04-22 10:05 55.45544 12.39336 3010 ft 176 kts 35°
2026-04-22 10:06 55.46463 12.40747 3008 ft 175 kts 35°
2026-04-22 10:06 55.47374 12.42143 3001 ft 177 kts 35°
2026-04-22 10:06 55.48304 12.43568 2860 ft 177 kts 36°
2026-04-22 10:06 55.49225 12.44981 2669 ft 174 kts 35°
2026-04-22 10:07 55.50125 12.46363 2443 ft 169 kts 35°
2026-04-22 10:07 55.51010 12.47721 2204 ft 164 kts 35°
2026-04-22 10:07 55.51859 12.49023 1983 ft 159 kts 34°
2026-04-22 10:07 55.52651 12.50245 1777 ft 143 kts 34°
2026-04-22 10:08 55.53374 12.51357 1571 ft 135 kts 33°
2026-04-22 10:08 55.54073 12.52428 1399 ft 132 kts 33°
2026-04-22 10:08 55.54761 12.53485 1206 ft 131 kts 33°
2026-04-22 10:08 55.55456 12.54551 1030 ft 134 kts 35°
2026-04-22 10:09 55.56161 12.55636 838 ft 135 kts 36°
2026-04-22 10:09 55.56876 12.56737 666 ft 137 kts 34°
2026-04-22 10:09 55.57590 12.57838 478 ft 137 kts 34°
2026-04-22 10:09 55.58305 12.58943 308 ft 136 kts 36°
2026-04-22 10:10 55.59015 12.60037 114 ft 134 kts 35°
2026-04-22 10:10 55.59703 12.61087 26 ft 118 kts 38°
2026-04-22 10:10 55.60226 12.61901 24 ft 84 kts 41°
2026-04-22 10:10 55.60588 12.62467 27 ft 48 kts 42°
2026-04-22 10:11 55.60835 12.62799 27 ft 42 kts 24°
2026-04-22 10:11 55.61022 12.62885 24 ft 12 kts 11°
2026-04-22 10:11 55.61109 12.62923 24 ft 14 kts 20°
2026-04-22 10:11 55.61196 12.63026 24 ft 17 kts 39°
2026-04-22 10:12 55.61290 12.63169 24 ft 19 kts 41°
2026-04-22 10:12 55.61398 12.63330 24 ft 22 kts 40°
2026-04-22 10:12 55.61511 12.63513 24 ft 23 kts 39°
2026-04-22 10:12 55.61638 12.63711 24 ft 25 kts 43°
2026-04-22 10:13 55.61777 12.63924 24 ft 28 kts 40°
2026-04-22 10:13 55.61883 12.64082 24 ft 16 kts 33°
2026-04-22 10:13 55.61996 12.64178 24 ft 19 kts 24°
2026-04-22 10:13 55.62126 12.64282 25 ft 22 kts 25°
2026-04-22 10:14 55.62247 12.64413 23 ft 13 kts 57°
2026-04-22 10:14 55.62292 12.64563 26 ft 15 kts 65°
2026-04-22 10:14 55.62332 12.64729 26 ft 12 kts 66°
2026-04-22 10:14 55.62407 12.64780 24 ft 14 kts
2026-04-22 10:15 55.62510 12.64774 24 ft 7 kts 357°
2026-04-22 10:15 55.62550 12.64798 26 ft 8 kts 44°
2026-04-22 10:15 55.62556 12.64896 24 ft 2 kts 87°